sat.trackr.live / text

‹ back to catalog

STARLINK-31144

NORAD 58682 · 2023-211R

PAYLOAD ACTIVE UNKNOWN

§ Identity

Operator
Country
US
Launch date
2023-12-29
Launch site
AFETR
Launch vehicle
Mass (kg)
RCS (m²)

Purposes: comms

External: N2YO · Heavens-Above · Gunter

§ Orbital elements

Epoch: 2026-05-25T00:32:55.741632Z

Period
94.27 min
Inclination
43.0066°
Eccentricity
0.0001712
Mean motion
15.27534302 rev/d
Perigee alt
482.0 km
Apogee alt
484.4 km
Semi-major
6,861.3 km
B*
-1.7619e-4
RAAN
13.7646°
Arg perigee
249.3038°
Mean anomaly
110.7630°
Rev number
13,414

§ Raw data

STARLINK-311441 58682U 23211R   26145.02286738 -.00005101  00000+0 -17619-3 0  99972 58682  43.0066  13.7646 0001712 249.3038 110.7630 15.27534302134140

JSON: /api/v1/satellites/58682 · /tle

For live sub-satellite position, see the globe view (requires WebGL).

§ Visibility from observer

Set your observer location to see the next 7 days of passes ≥ 10°. The values pass through the URL so the page stays shareable.

No JS? Fill the form by hand. The geolocation button needs JavaScript.